• en Belgique
  • Liste des pays
  • À 7 jours
  • Température de l'eau
  • Carte satellitaire
  • Carte météo
  • Widgets météo
  • user-avatar
    Se connecter

    Météo par heure à Tebessa

    Ce jour, 24 Janvier, Mercredi

    Heure Température Précipitation Vent Pression Humidité
    00:00 +5°C° 0 mm 4 m/s 690 mmHg 84%
    01:00 +5°C° 0 mm 3 m/s 691 mmHg 86%
    02:00 +5°C° 0 mm 3 m/s 690 mmHg 86%
    03:00 +4°C° 0 mm 3 m/s 690 mmHg 87%
    04:00 +5°C° 0 mm 2 m/s 690 mmHg 87%
    05:00 +4°C° 0 mm 2 m/s 690 mmHg 86%
    06:00 +4°C° 0 mm 2 m/s 691 mmHg 86%
    07:00 +4°C° 0 mm 2 m/s 691 mmHg 85%
    08:00 +5°C° 0 mm 2 m/s 691 mmHg 77%
    09:00 +8°C° 0 mm 1 m/s 692 mmHg 69%
    10:00 +9°C° 0 mm 1 m/s 692 mmHg 61%
    11:00 +11°C° 0 mm 1 m/s 692 mmHg 54%
    12:00 +12°C° 0 mm 1 m/s 693 mmHg 47%
    13:00 +13°C° 0 mm 1 m/s 693 mmHg 40%
    14:00 +14°C° 0 mm 1 m/s 693 mmHg 38%
    15:00 +14°C° 0 mm 1 m/s 692 mmHg 37%
    16:00 +14°C° 0 mm 1 m/s 692 mmHg 35%
    17:00 +13°C° 0 mm 1 m/s 692 mmHg 41%
    18:00 +12°C° 0 mm 2 m/s 692 mmHg 46%
    19:00 +9°C° 0 mm 2 m/s 692 mmHg 52%
    20:00 +9°C° 0 mm 2 m/s 692 mmHg 56%
    21:00 +8°C° 0 mm 2 m/s 692 mmHg 59%
    22:00 +8°C° 0 mm 2 m/s 692 mmHg 62%
    23:00 +7°C° 0 mm 2 m/s 692 mmHg 65%

    Demain, 25 Janvier, Jeudi

    Heure Température Précipitation Vent Pression Humidité
    00:00 +7°C° 0 mm 2 m/s 692 mmHg 67%
    01:00 +6°C° 0 mm 2 m/s 691 mmHg 70%
    02:00 +6°C° 0 mm 2 m/s 691 mmHg 71%
    03:00 +6°C° 0 mm 2 m/s 691 mmHg 72%
    04:00 +5°C° 0 mm 2 m/s 691 mmHg 74%
    05:00 +5°C° 0 mm 2 m/s 691 mmHg 75%
    06:00 +5°C° 0 mm 2 m/s 690 mmHg 75%
    07:00 +5°C° 0 mm 2 m/s 690 mmHg 76%
    08:00 +6°C° 0 mm 2 m/s 691 mmHg 70%
    09:00 +8°C° 0 mm 3 m/s 691 mmHg 64%
    10:00 +9°C° 0 mm 3 m/s 691 mmHg 58%
    11:00 +10°C° 0 mm 4 m/s 691 mmHg 53%
    12:00 +12°C° 0 mm 4 m/s 691 mmHg 48%
    13:00 +13°C° 0 mm 5 m/s 691 mmHg 42%
    14:00 +13°C° 0 mm 5 m/s 690 mmHg 44%
    15:00 +13°C° 0 mm 6 m/s 690 mmHg 45%
    16:00 +13°C° 0 mm 6 m/s 689 mmHg 47%
    17:00 +10°C° 0 mm 5 m/s 689 mmHg 54%
    18:00 +10°C° 0 mm 4 m/s 689 mmHg 61%
    19:00 +8°C° 0 mm 4 m/s 688 mmHg 68%
    20:00 +8°C° 0 mm 3 m/s 688 mmHg 72%
    21:00 +7°C° 0 mm 3 m/s 688 mmHg 76%
    22:00 +7°C° 0 mm 3 m/s 688 mmHg 81%
    23:00 +5°C° 0 mm 3 m/s 688 mmHg 83%

    Après-demain, 26 Janvier, Vendredi

    Heure Température Précipitation Vent Pression Humidité
    00:00 +5°C° 0 mm 3 m/s 687 mmHg 85%
    01:00 +5°C° 0 mm 3 m/s 687 mmHg 87%
    02:00 +4°C° 0 mm 3 m/s 687 mmHg 88%
    03:00 +4°C° 0 mm 3 m/s 686 mmHg 89%
    04:00 +4°C° 0 mm 3 m/s 686 mmHg 90%
    05:00 +4°C° 0 mm 4 m/s 686 mmHg 90%
    06:00 +4°C° 0 mm 4 m/s 686 mmHg 90%
    07:00 +4°C° 0 mm 4 m/s 685 mmHg 91%
    08:00 +5°C° 0 mm 4 m/s 686 mmHg 84%
    09:00 +6°C° 0 mm 4 m/s 686 mmHg 77%
    10:00 +8°C° 0 mm 5 m/s 686 mmHg 70%
    11:00 +9°C° 0 mm 5 m/s 686 mmHg 62%
    12:00 +12°C° 0 mm 5 m/s 686 mmHg 53%
    13:00 +14°C° 0 mm 6 m/s 686 mmHg 45%
    14:00 +14°C° 0 mm 6 m/s 685 mmHg 44%
    15:00 +14°C° 0 mm 5 m/s 685 mmHg 44%
    16:00 +14°C° 0 mm 5 m/s 685 mmHg 43%
    17:00 +12°C° 0 mm 5 m/s 685 mmHg 50%
    18:00 +11°C° 0 mm 4 m/s 685 mmHg 57%
    19:00 +10°C° 0 mm 4 m/s 685 mmHg 64%
    20:00 +9°C° 0 mm 3 m/s 685 mmHg 70%
    21:00 +8°C° 0 mm 2 m/s 685 mmHg 76%
    22:00 +8°C° 0 mm 1 m/s 685 mmHg 82%
    23:00 +7°C° 0,1 mm 2 m/s 685 mmHg 83%

    27 Janvier, Samedi

    Heure Température Précipitation Vent Pression Humidité
    00:00 +7°C° 0,1 mm 2 m/s 685 mmHg 84%
    01:00 +6°C° 0,1 mm 2 m/s 685 mmHg 86%
    02:00 +6°C° 0,2 mm 2 m/s 684 mmHg 86%
    03:00 +6°C° 0,2 mm 2 m/s 684 mmHg 87%
    04:00 +6°C° 0,2 mm 1 m/s 684 mmHg 88%
    05:00 +5°C° 0,9 mm 2 m/s 684 mmHg 88%
    06:00 +5°C° 0,9 mm 2 m/s 683 mmHg 89%
    07:00 +4°C° 0,9 mm 3 m/s 683 mmHg 89%
    08:00 +4°C° 1,1 mm 3 m/s 683 mmHg 89%
    09:00 +4°C° 1,1 mm 4 m/s 684 mmHg 88%
    10:00 +5°C° 1,1 mm 5 m/s 684 mmHg 87%
    11:00 +5°C° 1,2 mm 5 m/s 683 mmHg 86%
    12:00 +4°C° 1,2 mm 6 m/s 683 mmHg 85%
    13:00 +4°C° 1,2 mm 7 m/s 683 mmHg 85%
    14:00 +4°C° 0,8 mm 6 m/s 682 mmHg 82%
    15:00 +4°C° 0,8 mm 6 m/s 682 mmHg 78%
    16:00 +3°C° 0,8 mm 5 m/s 682 mmHg 75%
    17:00 +4°C° 0 mm 4 m/s 682 mmHg 75%
    18:00 +3°C° 0 mm 4 m/s 682 mmHg 74%
    19:00 +2°C° 0 mm 3 m/s 682 mmHg 73%
    20:00 +2°C° 0 mm 3 m/s 683 mmHg 73%
    21:00 +2°C° 0 mm 3 m/s 683 mmHg 74%
    22:00 +1°C° 0 mm 3 m/s 684 mmHg 75%
    23:00 +1°C° 0 mm 3 m/s 684 mmHg 75%

    28 Janvier, Dimanche

    Heure Température Précipitation Vent Pression Humidité
    00:00 +1°C° 0 mm 3 m/s 684 mmHg 76%
    01:00 +1°C° 0 mm 3 m/s 684 mmHg 77%
    02:00 +1°C° 0 mm 3 m/s 684 mmHg 77%
    03:00 +1°C° 0 mm 2 m/s 684 mmHg 77%
    04:00 +1°C° 0 mm 2 m/s 684 mmHg 77%
    05:00 +1°C° 0 mm 2 m/s 685 mmHg 77%
    06:00 +1°C° 0 mm 2 m/s 685 mmHg 77%
    07:00 0°C° 0 mm 3 m/s 685 mmHg 76%
    08:00 +1°C° 0 mm 3 m/s 686 mmHg 71%
    09:00 +3°C° 0 mm 4 m/s 687 mmHg 66%
    10:00 +3°C° 0 mm 5 m/s 688 mmHg 61%
    11:00 +4°C° 0 mm 6 m/s 688 mmHg 55%
    12:00 +5°C° 0 mm 7 m/s 688 mmHg 49%
    13:00 +6°C° 0 mm 7 m/s 688 mmHg 43%
    14:00 +6°C° 0 mm 7 m/s 688 mmHg 43%
    15:00 +8°C° 0 mm 7 m/s 688 mmHg 44%
    16:00 +8°C° 0 mm 7 m/s 688 mmHg 44%
    17:00 +7°C° 0 mm 6 m/s 688 mmHg 48%
    18:00 +6°C° 0 mm 5 m/s 688 mmHg 52%
    19:00 +5°C° 0 mm 5 m/s 689 mmHg 56%
    20:00 +5°C° 0,1 mm 5 m/s 689 mmHg 62%
    21:00 +5°C° 0,1 mm 5 m/s 690 mmHg 68%
    22:00 +4°C° 0,1 mm 6 m/s 690 mmHg 73%
    23:00 +4°C° 0,2 mm 6 m/s 690 mmHg 77%

    29 Janvier, Lundi

    Heure Température Précipitation Vent Pression Humidité
    00:00 +4°C° 0,2 mm 6 m/s 690 mmHg 82%
    01:00 +4°C° 0,2 mm 6 m/s 690 mmHg 86%
    02:00 +4°C° 0,1 mm 6 m/s 690 mmHg 88%
    03:00 +4°C° 0,1 mm 6 m/s 690 mmHg 90%
    04:00 +4°C° 0,1 mm 6 m/s 689 mmHg 92%
    05:00 +4°C° 0,1 mm 6 m/s 690 mmHg 92%
    06:00 +4°C° 0,1 mm 7 m/s 690 mmHg 91%
    07:00 +4°C° 0,1 mm 7 m/s 690 mmHg 91%
    08:00 +5°C° 0,1 mm 8 m/s 690 mmHg 88%
    09:00 +5°C° 0,1 mm 8 m/s 691 mmHg 85%
    10:00 +5°C° 0,1 mm 9 m/s 691 mmHg 81%
    11:00 +6°C° 0,1 mm 9 m/s 691 mmHg 78%
    12:00 +6°C° 0,1 mm 9 m/s 691 mmHg 75%
    13:00 +7°C° 0,1 mm 9 m/s 690 mmHg 71%
    14:00 +7°C° 0,1 mm 9 m/s 690 mmHg 69%
    15:00 +8°C° 0,1 mm 9 m/s 690 mmHg 68%
    16:00 +8°C° 0,1 mm 10 m/s 690 mmHg 66%
    17:00 +7°C° 0 mm 9 m/s 690 mmHg 71%
    18:00 +6°C° 0 mm 9 m/s 690 mmHg 76%
    19:00 +6°C° 0 mm 8 m/s 690 mmHg 81%
    20:00 +5°C° 0 mm 9 m/s 690 mmHg 83%
    21:00 +5°C° 0 mm 9 m/s 690 mmHg 85%
    22:00 +5°C° 0 mm 9 m/s 690 mmHg 87%
    23:00 +5°C° 0 mm 9 m/s 690 mmHg 87%
    Voir plus